User: anonymous   Login
Location: Unspecified
(0.0000°N, 0.0000°E)
Time: 08:48:08
(UTC+00:00)
Language:

NOAA 16 DEB - Orbit

View from above orbital plane
View from above orbital plane
View from above satellite
View from above satellite

Ground track
Ground track

The orbit data is extracted from the following two-line orbital elements,

1 41059U 00055S   22176.77376512  .00000386  00000-0  21631-3 0  9998
2 41059  98.7465 257.5268 0023627 134.1431 226.1691 14.16169331340157
Epoch (UTC): 25 June 2022 18:34:13
Eccentricity: 0.0023627
inclination: 98.7465°
perigee height: 821 km
apogee height: 855 km
right ascension of ascending node: 257.5268°
argument of perigee: 134.1431°
revolutions per day: 14.16169331
mean anomaly at epoch: 226.1691°
orbit number at epoch: 34015

The dashed part of the orbit path shows where the satellite is in the earth's shadow,  

DLR